User: anonymous   Login
Location: Ceske Budejovice
(48.9830°N, 14.4670°E)
Time: 18:31:52
(UTC+02:00)
Language:

BEESAT - Orbit

View from above orbital plane
View from above orbital plane
View from above satellite
View from above satellite

Ground track
Ground track

The orbit data is extracted from the following two-line orbital elements,

1 35933U 09051C   19197.42489688  .00000072  00000-0  27332-4 0  9994
2 35933  98.5927   5.9833 0007106  93.8903 266.3106 14.56380729520926
Epoch (UTC): 16 July 2019 10:11:51
Eccentricity: 0.0007106
inclination: 98.5927°
perigee height: 700 km
apogee height: 710 km
right ascension of ascending node: 5.9833°
argument of perigee: 93.8903°
revolutions per day: 14.56380729
mean anomaly at epoch: 266.3106°
orbit number at epoch: 52092

The dashed part of the orbit path shows where the satellite is in the earth's shadow,  

DLR